Regional Weather Roundup
Issued by NWS New Orleans/Baton Rouge, LA

Home | Current Version | Previous Version | Text Only | Print | Product List | Glossary On
Versions: 1 2 3 4 5 6 7 8 9 10 11 12 13 14 15 16 17 18 19 20 21 22 23 24 25 26 27
000
ASUS44 KLIX 222313
RWRLIX
NEW ORLEANS REGIONAL WEATHER ROUNDUP
NATIONAL WEATHER SERVICE NEW ORLEANS LA
600 PM CDT SUN OCT 22 2017

NOTE: "FAIR" INDICATES FEW OR NO CLOUDS BELOW 12,000 FEET WITH NO
      SIGNIFICANT WEATHER AND/OR OBSTRUCTIONS TO VISIBILITY.
      SKY/WX - SKY CONDITION AND SIGNIFICANT WEATHER.
      TMP - AIR TEMPERATURE.     DP    - DEWPOINT TEMPERATURE.
      RH  - RELATIVE HUMIDITY.   PRES  - PRESSURE.
      HI  - HEAT INDEX.          WCI   - WIND CHILL INDEX.

*  THESE STATIONS ARE NOT NWS OR FAA STATIONS AND ARE NOT UNDER
   NWS QUALITY CONTROL.

LAZ038-040-048-061>063-065>067-069-230000-
SOUTHEAST LOUISIANA

CITY           SKY/WX    TMP DP  RH WIND       PRES   REMARKS
N.O. INTL ARPT MOCLDY    73  61  65 E6        29.98F
N.O. LAKEFRONT PTCLDY   N/A N/A N/A N12       29.98F
N.O. DOWNTOWN*   N/A     74  58  57 NE6       29.99F
RESERVE*       CLOUDY    72  61  67 S6        29.96F
SLIDELL        MOCLDY    71  62  73 CALM      29.98F
BATON ROUGE    CLOUDY    69  58  67 S3        29.98R
BOOTHVILLE     CLOUDY    77  66  68 N9        30.00F
BELLE CHASSE   MOCLDY    75  58  56 N9        29.95F
BOGALUSA*        N/A     70  64  79 SE3       29.98F
GALLIANO*      CLOUDY    74  59  59 NE9       29.99F
NEW ROADS*       N/A     67  61  81 W7        30.00R
GONZALES*        N/A     71  57  61 CALM      29.95F
HAMMOND*       CLOUDY    70  59  68 SE6       29.95F
HOUMA*           N/A     72  63  73 CALM      29.99F
PORT FOURCHON* CLEAR     75  59  57 NE14      30.00F

$$

MSZ070-080>082-230000-
SOUTHERN MISSISSIPPI

CITY           SKY/WX    TMP DP  RH WIND       PRES   REMARKS
MCCOMB         CLOUDY    68  61  78 CALM      29.95F
GULFPORT       MOCLDY    70  68  93 N7        29.98F
BILOXI         PTCLDY    70  68  94 N5        29.98F
PASCAGOULA     LGT RAIN  69  67  93 N6        30.00S
STENNIS ARPT*  PTCLDY    72  64  78 NE7       29.99F

$$

COASTAL OBSERVATIONS
LAKE AND NEARSHORE STATIONS

STATION/POSITION TIME  TEMP    WIND        PRES    WAVE
                       AIR SEA DIR/SP/G            HT/PER
                 (UTC) (F)     (DEG/KT/KT) (MB)    (FT/S)
PASCAGOULA       2242           20/  7/  9 1015.6
WAVELAND YACHT   2242      74  350/  7/  8 1015.7
GRAND ISLE       2242      78   40/  9/ 14 1016.2
SOUTHWEST PASS   2242          360/ 22/ 24   N/A
NEW CANAL        2242      76   60/  4/  5 1015.4
SHELL BEACH      2242      78   20/  9/ 11 1015.6

OFFSHORE STATIONS

STATION/POSITION TIME  TEMP    WIND        PRES    WAVE
                       AIR SEA DIR/SP/G            HT/PER
                 (UTC) (F)     (DEG/KT/KT) (MB)    (FT/S)
64 S DAUPHIN ISL 2250   74 81  360/ 12/ 16 1015.8    6/ 7

$$





USA.gov is the U.S. government's official web portal to all federal, state and local government web resources and services.